CW4489 Marathon FL US current weather conditions

sailwx.info

Wind from 103 at 7 knots gusting 9

Air temperature 29.4° C
Dewpoint 25.4° C

Last reported at 2015-Aug-30 18:49 UTC.
Time now 2015-Aug-30 20:01 UTC

Location: N 24°44' W 081°02'.
View on Google Maps.

See reports from other nearby stations

  
Tides and Currents Weather Stations Pressure Air Temp Water Temp Dewpoint Dewpoint Depression Visibility Wind Speed Wind Dir Waves Ship Positions
date/time (UTC)wind fromknots sea level pressurealtimeterstation pressurevisibilityair tempwater tempwave heightnotes
2015-Aug-30 18:49 103 7 gusting 9 29.4
2015-Aug-30 18:29 120 7 gusting 9 30.0
2015-Aug-30 18:19 162 6 gusting 9 30.0
2015-Aug-30 18:09 136 6 gusting 10 30.0
2015-Aug-30 17:59 156 12 gusting 12 29.4
2015-Aug-30 17:49 137 6 gusting 10 29.4
2015-Aug-30 17:39 204 7 gusting 16 28.9
2015-Aug-30 17:09 159 4 gusting 13 28.3
2015-Aug-30 16:59 198 3 gusting 12 28.3
2015-Aug-30 16:13 207 5 gusting 8 27.8
2015-Aug-30 15:59 165 6 gusting 10 27.8
2015-Aug-30 15:49 198 7 gusting 11 27.2
2015-Aug-30 15:39 187 8 gusting 10 26.7
2015-Aug-30 15:29 157 6 gusting 10 27.2
2015-Aug-30 15:19 209 3 gusting 7 27.2
2015-Aug-30 15:09 180 7 gusting 11 27.2
2015-Aug-30 15:05 111 6 gusting 9 27.2
2015-Aug-30 13:49 145 7 gusting 10 29.4
2015-Aug-30 13:39 164 10 gusting 10 29.4
2015-Aug-30 13:19 111 6 gusting 10 28.9
2015-Aug-30 12:49 160 2 gusting 8 28.9
2015-Aug-30 12:39 135 2 gusting 8 28.9
2015-Aug-30 12:29 113 6 gusting 10 28.9
2015-Aug-30 12:19 126 3 gusting 6 28.3
2015-Aug-30 11:59 090 6 gusting 6 28.9
2015-Aug-30 11:49 132 4 gusting 7 28.9
2015-Aug-30 11:29 132 2 gusting 11 28.9
2015-Aug-30 11:19 069 5 gusting 8 28.9
2015-Aug-30 11:09 119 6 gusting 7 28.3
2015-Aug-30 10:59 121 3 gusting 9 27.8
2015-Aug-30 10:49 132 4 gusting 8 27.8
2015-Aug-30 10:29 103 6 gusting 11 28.9
2015-Aug-30 10:09 142 4 gusting 13 28.9
2015-Aug-30 09:59 140 8 gusting 13 29.4
2015-Aug-30 09:49 117 6 gusting 13 29.4
2015-Aug-30 09:39 134 8 gusting 13 29.4
2015-Aug-30 09:29 130 5 gusting 14 29.4
2015-Aug-30 09:19 150 7 gusting 13 29.4
2015-Aug-30 09:09 159 6 gusting 14 28.9
2015-Aug-30 08:49 157 8 gusting 13 29.4
2015-Aug-30 08:19 111 8 gusting 13 28.9
2015-Aug-30 08:09 119 6 gusting 8 28.3
2015-Aug-30 07:59 137 5 gusting 6 28.3
2015-Aug-30 07:39 082 2 gusting 6 27.8
2015-Aug-30 07:29 059 0 gusting 5 27.8
2015-Aug-30 07:09 040 2 gusting 5 27.8
2015-Aug-30 06:49 044 2 gusting 6 27.2
2015-Aug-30 06:39 080 1 gusting 5 27.2
2015-Aug-30 06:19 032 2 gusting 5 26.7
2015-Aug-30 06:09 069 26.7
2015-Aug-30 05:59 072 2 gusting 8 26.7
2015-Aug-30 05:49 046 1 gusting 9 26.7
2015-Aug-30 05:29 041 2 gusting 10 26.1
2015-Aug-30 04:59 038 8 gusting 20 27.8
2015-Aug-30 04:49 074 8 gusting 13 28.3
2015-Aug-30 04:39 037 4 gusting 8 28.3
2015-Aug-30 04:19 051 7 gusting 8 27.8
2015-Aug-30 04:09 033 1 gusting 7 28.9
2015-Aug-30 03:59 057 2 gusting 6 28.9
2015-Aug-30 03:49 005 2 gusting 7 29.4
2015-Aug-30 03:42 355 3 gusting 8 29.4
2015-Aug-30 03:39 022 5 gusting 8 29.4
2015-Aug-30 03:19 034 3 gusting 5 29.4
2015-Aug-30 02:59 028 2 gusting 5 29.4
2015-Aug-30 02:49 022 0 gusting 6 29.4
2015-Aug-30 02:39 059 1 gusting 7 29.4
2015-Aug-30 01:59 078 3 gusting 5 29.4
2015-Aug-30 01:49 049 1 gusting 5 28.9
2015-Aug-30 01:29 051 2 gusting 6 28.9
2015-Aug-30 01:19 051 0 gusting 3 28.9
2015-Aug-30 01:09 064 1 gusting 4 28.9
2015-Aug-30 00:49 074 29.4
2015-Aug-30 00:29 066 30.0
2015-Aug-30 00:19 074 2 gusting 6 30.0
2015-Aug-30 00:09 093 30.0
2015-Aug-29 23:59 075 0 gusting 3 30.0
2015-Aug-29 23:49 072 30.6
2015-Aug-29 23:29 071 2 gusting 6 30.6
2015-Aug-29 23:19 081 1 gusting 6 31.1
2015-Aug-29 23:09 070 2 gusting 6 31.1
2015-Aug-29 22:59 082 4 gusting 4 31.1
2015-Aug-29 17:29 108 3 gusting 9 32.2
2015-Aug-29 17:09 060 0 gusting 6 33.3
2015-Aug-29 16:59 086 2 gusting 6 33.9
2015-Aug-29 16:49 095 2 gusting 6 33.3
2015-Aug-29 16:39 072 2 gusting 6 33.3
2015-Aug-29 16:29 076 6 gusting 6 33.3
2015-Aug-29 16:19 050 4 gusting 7 32.8
2015-Aug-29 16:09 081 1 gusting 6 33.3
2015-Aug-29 15:59 090 3 gusting 5 33.3
2015-Aug-29 15:49 071 3 gusting 6 33.3
2015-Aug-29 15:39 096 0 gusting 6 33.3
2015-Aug-29 15:29 088 32.2
2015-Aug-29 15:09 090 6 gusting 6 32.8
2015-Aug-29 14:39 103 2 gusting 7 32.2
2015-Aug-29 14:19 078 0 gusting 6 31.7
2015-Aug-29 14:09 071 2 gusting 5 31.7
2015-Aug-29 13:59 077 2 gusting 5 31.7
2015-Aug-29 13:49 127 1 gusting 6 31.7
2015-Aug-29 13:39 109 5 gusting 6 31.1
2015-Aug-29 13:29 085 3 gusting 6 31.1
2015-Aug-29 13:19 084 4 gusting 6 31.1
2015-Aug-29 12:59 091 4 gusting 5 31.1
2015-Aug-29 12:49 086 2 gusting 6 30.6
2015-Aug-29 12:39 078 1 gusting 6 30.6
2015-Aug-29 12:29 074 0 gusting 6 30.6
2015-Aug-29 12:19 083 0 gusting 5 30.6
2015-Aug-29 12:09 063 0 gusting 4 30.0
2015-Aug-29 11:59 071 30.0
2015-Aug-29 11:49 066 0 gusting 6 30.0
2015-Aug-29 11:39 082 2 gusting 6 30.0
2015-Aug-29 11:29 074 2 gusting 5 30.0
2015-Aug-29 11:09 072 2 gusting 5 30.0
2015-Aug-29 10:59 078 30.0
2015-Aug-29 10:49 078 2 gusting 6 30.0
2015-Aug-29 10:39 076 0 gusting 5 30.0
2015-Aug-29 10:29 111 0 gusting 6 30.0
2015-Aug-29 10:19 109 1 gusting 6 29.4
2015-Aug-29 09:59 076 2 gusting 6 30.0
2015-Aug-29 09:49 110 1 gusting 5 29.4
2015-Aug-29 09:39 071 6 gusting 6 29.4
2015-Aug-29 09:09 130 0 gusting 6 29.4
2015-Aug-29 08:49 126 1 gusting 6 28.9
2015-Aug-29 08:39 098 5 gusting 5 28.9
2015-Aug-29 08:19 076 1 gusting 6 28.9
2015-Aug-29 08:09 090 1 gusting 6 28.3
2015-Aug-29 07:59 076 0 gusting 5 28.3
2015-Aug-29 07:29 082 1 gusting 6 28.3
2015-Aug-29 06:59 042 3 gusting 5 28.3
2015-Aug-29 06:09 017 1 gusting 5 27.8
2015-Aug-29 05:59 038 0 gusting 6 27.8
2015-Aug-29 05:49 014 1 gusting 6 27.8
2015-Aug-29 05:19 059 2 gusting 5 27.2
2015-Aug-29 04:49 032 5 gusting 6 27.2
2015-Aug-29 04:39 022 2 gusting 6 26.7
2015-Aug-29 04:09 355 6 gusting 7 26.1
2015-Aug-29 03:49 302 6 gusting 8 26.1
2015-Aug-29 03:39 355 4 gusting 12 26.1
2015-Aug-29 03:19 036 6 gusting 10 28.9
2015-Aug-29 03:09 060 0 gusting 2 30.0
2015-Aug-29 02:39 101 0 gusting 1 30.0
2015-Aug-29 02:29 053 1 gusting 3 30.0
2015-Aug-29 02:19 062 1 gusting 5 30.0
2015-Aug-29 02:09 126 2 gusting 2 30.0
2015-Aug-29 01:49 067 2 gusting 3 30.0
2015-Aug-29 01:39 080 0 gusting 4 30.0
2015-Aug-29 01:29 020 30.0
2015-Aug-29 01:09 077 0 gusting 4 30.0
2015-Aug-29 00:59 066 0 gusting 2 30.0
2015-Aug-29 00:49 066 30.0
2015-Aug-29 00:39 053 0 gusting 3 30.0
2015-Aug-29 00:29 061 30.6
2015-Aug-29 00:09 060 30.6
2015-Aug-28 23:59 068 30.6
2015-Aug-28 23:49 061 0 gusting 3 30.6
2015-Aug-28 23:39 092 31.1
2015-Aug-28 23:29 078 31.1
2015-Aug-28 23:19 071 0 gusting 2 31.7
2015-Aug-28 22:59 081 0 gusting 2 32.2
2015-Aug-28 22:49 111 32.8
2015-Aug-28 22:39 074 32.8
2015-Aug-28 22:19 107 33.3
2015-Aug-28 22:09 081 1 gusting 3 33.3
2015-Aug-28 21:59 075 1 gusting 2 33.9
2015-Aug-28 21:49 065 0 gusting 4 33.3
2015-Aug-28 21:29 076 33.9
2015-Aug-28 21:19 074 1 gusting 2 33.9
2015-Aug-28 21:09 054 0 gusting 5 33.9
2015-Aug-28 20:39 100 35.0
2015-Aug-28 20:29 090 0 gusting 4 33.9
2015-Aug-28 20:19 067 0 gusting 4 33.3
2015-Aug-28 20:09 145 0 gusting 5 33.9